Greenwood, MS

2:54 PM CDT on September 30, 2016 (GMT -0500)
Greenwood-Leflore

Weather History for KGWO - December, 2011

Change the Weather History Date:

Sunday, December 25, 2011

  Actual Average Record
Temperature  
Mean Temperature 47 °F 44 °F  
Max Temperature 51 °F 54 °F 79 °F (1982)
Min Temperature 43 °F 34 °F 5 °F (1983)
Degree Days  
Heating Degree Days 18 21  
Month to date heating degree days 443 471  
Since 1 July heating degree days 937 939  
Cooling Degree Days 0 0  
Month to date cooling degree days 4 0  
Year to date cooling degree days 2340 2159  
Moisture  
Dew Point 44 °F    
Average Humidity 88    
Maximum Humidity 93    
Minimum Humidity 83    
Precipitation  
Precipitation 0.64 in 0.17 in 4.07 in (1982)
Month to date precipitation 5.35 4.70  
Year to date precipitation 37.14 50.82  
Sea Level Pressure  
Sea Level Pressure 30.36 in    
Wind  
Wind Speed 5 mph (NNE)    
Max Wind Speed 10 mph    
Max Gust Speed 13 mph    
Visibility 8 miles    
Events Rain    
T = Trace of Precipitation, MM = Missing Value Source: NWS Daily Summary

Daily Weather History Graph

Daily Weather History Graph

Search for Another Location

Airport or City:

Trip Planner

Search our weather history database for the weather conditions in past years. The results will help you decide how hot, cold, wet, or windy it might be!

Date:

Astronomy

Dec. 25, 2011 Rise Set
Actual Time 7:02 AM CST 4:58 PM CST
Civil Twilight 6:34 AM CST 5:26 PM CST
Nautical Twilight 6:03 AM CST 5:57 PM CST
Astronomical Twilight 5:33 AM CST 6:27 PM CST
Moon 7:42 AM CST (12/25) 6:16 PM CST (12/25)
Length of Visible Light 10h 51m
Length of Day
9h 56m
New Moon, 1% of the Moon is Illuminated
Dec 25
New Moon
Jan 1
First Quarter
Jan 9
Full
Jan 16
Last Quarter
Jan 23
New

Hourly Weather History & Observations

Time (CST) Temp. Windchill Dew Point Humidity Pressure Visibility Wind Dir Wind Speed Gust Speed Precip Events Conditions
12:53 AM 44.1 °F 40.8 °F 42.1 °F 93% 30.37 in 5.0 mi NE 5.8 mph - 0.04 in Rain Light Rain
1:53 AM 44.1 °F 41.5 °F 41.0 °F 89% 30.38 in 8.0 mi North 4.6 mph - 0.04 in Rain Light Rain
2:53 AM 44.1 °F 41.5 °F 42.1 °F 93% 30.38 in 8.0 mi NNW 4.6 mph - 0.01 in   Overcast
3:53 AM 44.1 °F 40.8 °F 42.1 °F 93% 30.36 in 4.0 mi NE 5.8 mph - 0.06 in Rain Rain
4:53 AM 44.1 °F 41.5 °F 42.1 °F 93% 30.35 in 5.0 mi NNE 4.6 mph - 0.05 in Rain Rain
5:53 AM 44.1 °F 40.1 °F 42.1 °F 93% 30.33 in 5.0 mi ENE 6.9 mph - 0.07 in Rain Light Rain
6:37 AM 44.6 °F 43.1 °F 42.8 °F 93% 30.35 in 5.0 mi ENE 3.5 mph - 0.07 in Rain Rain
6:53 AM 44.1 °F 41.5 °F 42.1 °F 93% 30.36 in 5.0 mi NE 4.6 mph - 0.10 in Rain Rain
6:55 AM 44.6 °F 42.2 °F 42.8 °F 93% 30.36 in 5.0 mi NE 4.6 mph - 0.00 in Rain Rain
7:42 AM 44.6 °F - 42.8 °F 93% 30.37 in 3.0 mi Calm Calm - 0.13 in Rain Heavy Rain
7:53 AM 44.1 °F 42.5 °F 42.1 °F 93% 30.38 in 3.0 mi East 3.5 mph - 0.19 in Rain Heavy Rain
8:53 AM 44.1 °F 40.8 °F 43.0 °F 96% 30.41 in 4.0 mi NNW 5.8 mph - 0.09 in Rain Light Rain
9:41 AM 44.6 °F 40.7 °F 42.8 °F 93% 30.41 in 5.0 mi North 6.9 mph - 0.00 in   Overcast
9:53 AM 45.0 °F 40.6 °F 43.0 °F 93% 30.41 in 5.0 mi North 8.1 mph - 0.00 in   Overcast
10:07 AM 44.6 °F 41.4 °F 42.8 °F 93% 30.42 in 6.0 mi North 5.8 mph - N/A   Overcast
10:20 AM 46.4 °F 42.9 °F 42.8 °F 87% 30.42 in 8.0 mi NE 6.9 mph - N/A   Overcast
10:53 AM 46.9 °F - 44.1 °F 90% 30.42 in 9.0 mi NE 3.5 mph - N/A   Overcast
11:53 AM 48.0 °F - 44.1 °F 86% 30.39 in 10.0 mi NE 5.8 mph - N/A   Overcast
12:44 PM 48.2 °F - 44.6 °F 87% 30.36 in 10.0 mi East 4.6 mph - N/A   Overcast
12:53 PM 50.0 °F - 46.4 °F 87% 30.36 in 10.0 mi NE 4.6 mph - N/A   Overcast
1:12 PM 50.0 °F - 46.4 °F 87% 30.36 in 10.0 mi NE 5.8 mph - N/A   Overcast
1:36 PM 51.8 °F - 46.4 °F 82% 30.35 in 10.0 mi North 8.1 mph - N/A   Overcast
1:53 PM 51.1 °F - 46.9 °F 86% 30.35 in 10.0 mi North 8.1 mph - N/A   Overcast
2:53 PM 50.0 °F - 46.9 °F 89% 30.34 in 10.0 mi NNE 5.8 mph - N/A   Overcast
3:34 PM 51.8 °F - 46.4 °F 82% 30.34 in 10.0 mi NNE 4.6 mph - N/A   Mostly Cloudy
3:53 PM 51.1 °F - 46.0 °F 83% 30.35 in 10.0 mi NE 4.6 mph - N/A   Partly Cloudy
4:53 PM 48.2 °F - 46.4 °F 93% 30.33 in 10.0 mi NNE 4.6 mph - N/A   Clear
5:53 PM 48.9 °F - 45.0 °F 86% 30.34 in 10.0 mi Calm Calm - N/A   Clear
6:53 PM 48.0 °F - 45.0 °F 89% 30.35 in 10.0 mi NNE 8.1 mph - N/A   Clear
7:53 PM 46.9 °F - 44.1 °F 90% 30.33 in 10.0 mi ENE 5.8 mph - N/A   Clear
8:53 PM 46.9 °F - 44.1 °F 90% 30.35 in 10.0 mi NNW 3.5 mph - N/A   Clear
9:53 PM 45.0 °F - 43.0 °F 93% 30.35 in 10.0 mi Calm Calm - N/A   Clear
10:53 PM 46.4 °F - 44.6 °F 93% 30.33 in 10.0 mi Calm Calm - N/A   Clear
11:53 PM 46.9 °F - 44.1 °F 90% 30.32 in 10.0 mi NE 8.1 mph - N/A   Clear